Location: Barcelona
(41.3830°N, 2.1830°E)
Time: 00:33:46
(UTC+02:00)

ISS - Pass Details

Date: 17 July 2019
Orbit: 409 x 418 km, 51.6° (Epoch: 22 July)

Event Time Altitude Azimuth Distance (km) Brightness Sun altitude
Rises 02:16:28 0° 298° (WNW) 2,349 0.3 -27.2°
Reaches altitude 10° 02:19:21 10° 325° (NW) 1,485 -0.4 -27.1°
Maximum altitude 02:21:12 14° 359° (N) 1,263 -0.5 -27.1°
Drops below altitude 10° 02:23:03 10° 33° (NNE) 1,482 -0.2 -27.1°
Sets 02:25:55 0° 60° (ENE) 2,342 0.5 -27.0°
